This is the latest recevied weather packets stored in our database for station/object KF0EZB. If no packets are shown the sender has not sent any weather packets the latest 10 day(s).
| Time | Temp. | Humidity | Pressure | Rain* | Wind** | Luminosity | Snow |
|---|---|---|---|---|---|---|---|
| 1777935467 | 29.44° C | 24% | 1000.3 hPa | 0 mm | - | 112 W/m² | - |
| 1777935163 | 30° C | 25% | 1000.6 hPa | 0 mm | - | 128 W/m² | - |
| 1777934860 | 30° C | 25% | 1000.6 hPa | 0 mm | - | 257 W/m² | - |
| 1777934558 | 30° C | 23% | 1000.4 hPa | 0 mm | - | 228 W/m² | - |
| 1777934254 | 30° C | 23% | 1000.2 hPa | 0 mm | - | 294 W/m² | - |
| 1777933949 | 30° C | 24% | 1000.4 hPa | 0 mm | - | 318 W/m² | - |
| 1777933647 | 30° C | 24% | 1000.6 hPa | 0 mm | - | 339 W/m² | - |
| 1777933343 | 30° C | 22% | 1000.6 hPa | 0 mm | - | 311 W/m² | - |
| 1777933041 | 30.56° C | 22% | 1000.4 hPa | 0 mm | - | 349 W/m² | - |
| 1777932738 | 30.56° C | 20% | 1000.6 hPa | 0 mm | - | 395 W/m² | - |
| 1777932434 | 30.56° C | 20% | 1000.3 hPa | 0 mm | - | 308 W/m² | - |
| 1777932132 | 31.11° C | 17% | 1000.5 hPa | 0 mm | - | 341 W/m² | - |
| 1777931829 | 31.11° C | 20% | 1000.5 hPa | 0 mm | - | 463 W/m² | - |
| 1777931526 | 30.56° C | 18% | 1000.5 hPa | 0 mm | - | 466 W/m² | - |
| 1777931221 | 30.56° C | 19% | 1000.4 hPa | 0 mm | - | 446 W/m² | - |
| 1777930918 | 30.56° C | 18% | 1000.7 hPa | 0 mm | - | 516 W/m² | - |
| 1777930615 | 30° C | 18% | 1000.4 hPa | 0 mm | - | 291 W/m² | - |
| 1777930311 | 30° C | 19% | 1000.9 hPa | 0 mm | - | 276 W/m² | - |
| 1777930008 | 30.56° C | 19% | 1000.8 hPa | 0 mm | - | 405 W/m² | - |
| 1777929704 | 30.56° C | 19% | 1000.8 hPa | 0 mm | - | 236 W/m² | - |
| 1777929402 | 31.11° C | 20% | 1001 hPa | 0 mm | - | 468 W/m² | - |
| 1777929098 | 30.56° C | 21% | 1001.2 hPa | 0 mm | - | 614 W/m² | - |
| 1777928796 | 30.56° C | 20% | 1001 hPa | 0 mm | - | 581 W/m² | - |
| 1777928492 | 30° C | 20% | 1001.2 hPa | 0 mm | - | 555 W/m² | - |
| 1777928190 | 30° C | 19% | 1001.2 hPa | 0 mm | - | 311 W/m² | - |
* Rain latest hour (hover to see other rain measurements)
** Current wind speed in m/s (hover to see current wind gust speed)